When you browse on this site, cookies collect data to enhance your experience and personalize the content and advertising you see.
Visit our Privacy Policy to learn more. By continuing to use the site, you agree to this use of cookies and data.
  • In Österreich
  • Länderverzeichnis
  • Für 7 Tage
  • Wassertemperatur
  • Satellitenkarten
  • Wetterkarte
  • News
  • Widgets
  • user-avatar
    Anmelden

    Stündliche Wetter Pabna

    Heute, 20 Juni, Donnerstag

    Zeit Temperatur Niederschläge Wind Luftdruck Luftfeuchtigkeit
    00:00 +32°C° 0 mm 1 m/S 748 mmHg 71%
    01:00 +32°C° 0.4 mm 1 m/S 748 mmHg 73%
    02:00 +31°C° 0.4 mm 1 m/S 748 mmHg 75%
    03:00 +31°C° 0.4 mm 2 m/S 747 mmHg 78%
    04:00 +31°C° 0 mm 2 m/S 747 mmHg 77%
    05:00 +31°C° 0 mm 2 m/S 748 mmHg 77%
    06:00 +29°C° 0 mm 0 m/S 748 mmHg 76%
    07:00 +33°C° 0 mm 1 m/S 748 mmHg 69%
    08:00 +35°C° 0 mm 1 m/S 749 mmHg 62%
    09:00 +37°C° 0 mm 2 m/S 749 mmHg 55%
    10:00 +39°C° 0 mm 2 m/S 749 mmHg 50%
    11:00 +40°C° 0 mm 2 m/S 748 mmHg 45%
    12:00 +40°C° 0 mm 1 m/S 749 mmHg 42%
    13:00 +40°C° 0 mm 2 m/S 748 mmHg 43%
    14:00 +40°C° 0 mm 2 m/S 747 mmHg 44%
    15:00 +40°C° 0 mm 2 m/S 746 mmHg 45%
    16:00 +39°C° 0 mm 2 m/S 746 mmHg 46%
    17:00 +39°C° 0 mm 2 m/S 745 mmHg 46%
    18:00 +37°C° 0 mm 4 m/S 746 mmHg 58%
    19:00 +36°C° 0.7 mm 3 m/S 746 mmHg 62%
    20:00 +34°C° 0.7 mm 3 m/S 747 mmHg 65%
    21:00 +33°C° 0.7 mm 3 m/S 747 mmHg 69%
    22:00 +33°C° 0 mm 3 m/S 748 mmHg 69%
    23:00 +31°C° 0 mm 3 m/S 748 mmHg 69%

    Morgen, 21 Juni, Freitag

    Zeit Temperatur Niederschläge Wind Luftdruck Luftfeuchtigkeit
    00:00 +31°C° 0 mm 3 m/S 748 mmHg 69%
    01:00 +31°C° 0 mm 2 m/S 748 mmHg 70%
    02:00 +31°C° 0 mm 2 m/S 748 mmHg 71%
    03:00 +30°C° 0 mm 1 m/S 748 mmHg 72%
    04:00 +30°C° 0 mm 1 m/S 748 mmHg 73%
    05:00 +30°C° 0 mm 1 m/S 748 mmHg 75%
    06:00 +30°C° 0 mm 1 m/S 748 mmHg 76%
    07:00 +32°C° 0 mm 2 m/S 749 mmHg 71%
    08:00 +34°C° 0 mm 3 m/S 749 mmHg 66%
    09:00 +35°C° 0 mm 4 m/S 750 mmHg 62%
    10:00 +36°C° 0 mm 4 m/S 749 mmHg 60%
    11:00 +37°C° 0 mm 4 m/S 749 mmHg 58%
    12:00 +37°C° 0 mm 4 m/S 749 mmHg 55%
    13:00 +37°C° 1.6 mm 4 m/S 748 mmHg 56%
    14:00 +38°C° 1.6 mm 4 m/S 747 mmHg 56%
    15:00 +38°C° 1.6 mm 4 m/S 746 mmHg 56%
    16:00 +37°C° 1 mm 4 m/S 746 mmHg 58%
    17:00 +37°C° 1 mm 4 m/S 746 mmHg 60%
    18:00 +36°C° 1 mm 4 m/S 746 mmHg 62%
    19:00 +35°C° 0.2 mm 4 m/S 746 mmHg 65%
    20:00 +34°C° 0.2 mm 4 m/S 747 mmHg 67%
    21:00 +34°C° 0.2 mm 5 m/S 748 mmHg 70%
    22:00 +33°C° 0 mm 4 m/S 748 mmHg 72%
    23:00 +32°C° 0 mm 4 m/S 749 mmHg 74%

    übermorgen, 22 Juni, Samstag

    Zeit Temperatur Niederschläge Wind Luftdruck Luftfeuchtigkeit
    00:00 +32°C° 0 mm 4 m/S 749 mmHg 76%
    01:00 +32°C° 0 mm 4 m/S 749 mmHg 78%
    02:00 +30°C° 0 mm 4 m/S 749 mmHg 80%
    03:00 +30°C° 0 mm 3 m/S 749 mmHg 82%
    04:00 +30°C° 0 mm 3 m/S 749 mmHg 82%
    05:00 +30°C° 0 mm 3 m/S 749 mmHg 82%
    06:00 +30°C° 0 mm 3 m/S 749 mmHg 83%
    07:00 +32°C° 0 mm 4 m/S 750 mmHg 77%
    08:00 +33°C° 0 mm 4 m/S 750 mmHg 71%
    09:00 +35°C° 0 mm 5 m/S 750 mmHg 65%
    10:00 +36°C° 0.1 mm 5 m/S 750 mmHg 61%
    11:00 +37°C° 0.1 mm 5 m/S 749 mmHg 56%
    12:00 +39°C° 0.1 mm 5 m/S 749 mmHg 52%
    13:00 +38°C° 0.3 mm 4 m/S 748 mmHg 52%
    14:00 +38°C° 0.3 mm 3 m/S 748 mmHg 52%
    15:00 +38°C° 0.3 mm 3 m/S 747 mmHg 52%
    16:00 +37°C° 0.1 mm 3 m/S 747 mmHg 55%
    17:00 +36°C° 0.1 mm 3 m/S 747 mmHg 59%
    18:00 +36°C° 0.1 mm 2 m/S 747 mmHg 63%
    19:00 +35°C° 0 mm 3 m/S 747 mmHg 64%
    20:00 +35°C° 0 mm 3 m/S 748 mmHg 65%
    21:00 +34°C° 0 mm 4 m/S 749 mmHg 67%
    22:00 +33°C° 0 mm 4 m/S 749 mmHg 69%
    23:00 +33°C° 0 mm 4 m/S 749 mmHg 72%

    23 Juni, Sonntag

    Zeit Temperatur Niederschläge Wind Luftdruck Luftfeuchtigkeit
    00:00 +32°C° 0 mm 4 m/S 749 mmHg 75%
    01:00 +32°C° 0 mm 4 m/S 749 mmHg 76%
    02:00 +30°C° 0 mm 3 m/S 749 mmHg 78%
    03:00 +30°C° 0 mm 3 m/S 748 mmHg 80%
    04:00 +30°C° 0 mm 3 m/S 749 mmHg 80%
    05:00 +30°C° 0 mm 3 m/S 749 mmHg 81%
    06:00 +30°C° 0 mm 3 m/S 750 mmHg 82%
    07:00 +31°C° 0 mm 3 m/S 750 mmHg 75%
    08:00 +34°C° 0 mm 4 m/S 750 mmHg 67%
    09:00 +35°C° 0 mm 4 m/S 750 mmHg 60%
    10:00 +37°C° 0 mm 4 m/S 750 mmHg 55%
    11:00 +38°C° 0 mm 4 m/S 749 mmHg 50%
    12:00 +40°C° 0 mm 4 m/S 749 mmHg 44%
    13:00 +40°C° 0 mm 4 m/S 748 mmHg 44%
    14:00 +40°C° 0 mm 4 m/S 747 mmHg 44%
    15:00 +40°C° 0 mm 4 m/S 747 mmHg 45%
    16:00 +40°C° 0 mm 4 m/S 746 mmHg 46%
    17:00 +39°C° 0 mm 3 m/S 746 mmHg 48%
    18:00 +38°C° 0 mm 3 m/S 746 mmHg 49%
    19:00 +37°C° 0 mm 3 m/S 747 mmHg 52%
    20:00 +36°C° 0 mm 3 m/S 747 mmHg 55%
    21:00 +35°C° 0 mm 4 m/S 748 mmHg 57%
    22:00 +34°C° 0 mm 4 m/S 748 mmHg 60%
    23:00 +34°C° 0 mm 5 m/S 748 mmHg 63%

    24 Juni, Montag

    Zeit Temperatur Niederschläge Wind Luftdruck Luftfeuchtigkeit
    00:00 +33°C° 0 mm 5 m/S 749 mmHg 65%
    01:00 +32°C° 0 mm 5 m/S 749 mmHg 68%
    02:00 +32°C° 0 mm 5 m/S 749 mmHg 70%
    03:00 +30°C° 0 mm 5 m/S 749 mmHg 73%
    04:00 +30°C° 0 mm 4 m/S 749 mmHg 75%
    05:00 +30°C° 0 mm 4 m/S 749 mmHg 78%
    06:00 +30°C° 0 mm 4 m/S 749 mmHg 80%
    07:00 +32°C° 0 mm 5 m/S 750 mmHg 74%
    08:00 +34°C° 0 mm 5 m/S 750 mmHg 68%
    09:00 +35°C° 0 mm 5 m/S 751 mmHg 62%
    10:00 +37°C° 0 mm 5 m/S 750 mmHg 56%
    11:00 +39°C° 0 mm 5 m/S 750 mmHg 49%
    12:00 +41°C° 0 mm 5 m/S 749 mmHg 43%
    13:00 +41°C° 0 mm 4 m/S 748 mmHg 41%
    14:00 +42°C° 0 mm 4 m/S 748 mmHg 38%
    15:00 +43°C° 0 mm 4 m/S 747 mmHg 36%
    16:00 +42°C° 0 mm 4 m/S 747 mmHg 39%
    17:00 +41°C° 0 mm 4 m/S 746 mmHg 42%
    18:00 +40°C° 0 mm 4 m/S 746 mmHg 45%
    19:00 +39°C° 0 mm 5 m/S 747 mmHg 48%
    20:00 +38°C° 0 mm 6 m/S 748 mmHg 51%
    21:00 +36°C° 0 mm 7 m/S 748 mmHg 54%
    22:00 +35°C° 0 mm 7 m/S 749 mmHg 59%
    23:00 +34°C° 0 mm 7 m/S 749 mmHg 64%

    25 Juni, Dienstag

    Zeit Temperatur Niederschläge Wind Luftdruck Luftfeuchtigkeit
    00:00 +33°C° 0 mm 7 m/S 749 mmHg 68%
    01:00 +32°C° 0 mm 7 m/S 749 mmHg 70%
    02:00 +32°C° 0 mm 7 m/S 748 mmHg 71%
    03:00 +32°C° 0 mm 7 m/S 748 mmHg 73%
    04:00 +32°C° 0 mm 7 m/S 748 mmHg 73%
    05:00 +32°C° 0 mm 6 m/S 748 mmHg 73%
    06:00 +32°C° 0 mm 6 m/S 749 mmHg 73%
    07:00 +33°C° 0 mm 6 m/S 749 mmHg 68%
    08:00 +34°C° 0 mm 7 m/S 749 mmHg 64%
    09:00 +36°C° 0 mm 7 m/S 750 mmHg 60%
    10:00 +38°C° 0 mm 6 m/S 749 mmHg 55%
    11:00 +40°C° 0 mm 6 m/S 749 mmHg 49%
    12:00 +42°C° 0 mm 5 m/S 748 mmHg 44%
    13:00 +42°C° 0 mm 5 m/S 747 mmHg 44%
    14:00 +42°C° 0 mm 5 m/S 747 mmHg 44%
    15:00 +42°C° 0 mm 5 m/S 746 mmHg 43%
    16:00 +39°C° 2 mm 5 m/S 746 mmHg 56%
    17:00 +35°C° 2 mm 6 m/S 746 mmHg 68%
    18:00 +30°C° 2 mm 6 m/S 746 mmHg 80%
    19:00 +30°C° 8.4 mm 6 m/S 747 mmHg 83%
    20:00 +29°C° 8.4 mm 6 m/S 748 mmHg 86%
    21:00 +29°C° 8.4 mm 6 m/S 748 mmHg 89%
    22:00 +29°C° 1 mm 7 m/S 748 mmHg 89%
    23:00 +29°C° 1 mm 7 m/S 748 mmHg 89%
    Mehr zeigen